Hourly Weather Roundup
Issued by NWS Central Illinois

Home | Current Version | Previous Version | Text Only | Print | Product List | Glossary Off
Versions: 1 2 3 4 5 6 7 8 9 10 11 12 13 14 15 16 17 18 19 20 21 22 23 24 25 26 27 28 29 30 31 32 33 34 35 36 37 38 39 40 41 42 43 44 45 46 47 48 49 50

000
NZUS43 KILX 190610
HWRILX

AREA WEATHER ROUNDUP
NATIONAL WEATHER SERVICE, LINCOLN IL
1200 AM CST THU JAN 19 2017


CITY           SKY/WX    TMP DP  RH WIND       PRES   REMARKS
BLOOMINGTON    PTCLDY    33  32  96 S8        30.06F FOG     WCI  26
6HR MIN TEMP:  31; 6HR MAX TEMP:  35;

CHAMPAIGN      CLOUDY    34  32  92 SE5       30.08F FOG     WCI  30
6HR MIN TEMP:  33; 6HR MAX TEMP:  36;

DANVILLE       CLOUDY    34  33  96 S5        30.06F WCI  30
6HR MIN TEMP:  34; 6HR MAX TEMP:  37;

DECATUR        CLOUDY    34  34 100 S3        30.07F
6HR MIN TEMP:  33; 6HR MAX TEMP:  39;

EFFINGHAM      CLOUDY    38  38  99 E5        30.09F WCI  35
6HR MIN TEMP:  37; 6HR MAX TEMP:  39;

FLORA          MOCLDY    40  37  91 SE3       30.09F
6HR MIN TEMP:  38; 6HR MAX TEMP:  40;

GALESBURG      CLEAR     32  32 100 SE5       30.02F FOG     WCI  28
6HR MIN TEMP:  30; 6HR MAX TEMP:  35;

JACKSONVILLE   PTCLDY    36  34  93 SE5       30.04F WCI  32
6HR MIN TEMP:  32; 6HR MAX TEMP:  39;

LACON          CLOUDY    30  30 100 SE3       30.05S FOG
6HR MIN TEMP:  29; 6HR MAX TEMP:  33;

LAWRENCEVILLE  CLOUDY    37  37 100 S5        30.11F FOG     WCI  33
6HR MIN TEMP:  37; 6HR MAX TEMP:  40;

LITCHFIELD     CLOUDY    38  36  92 E5        30.04F WCI  35
6HR MIN TEMP:  38; 6HR MAX TEMP:  39;

$$


CITY           SKY/WX    TMP DP  RH WIND       PRES   REMARKS
LINCOLN        CLOUDY    35  34  98 SE5       30.06F FOG     WCI  31
6HR MIN TEMP:  31; 6HR MAX TEMP:  38;

MACOMB         CLEAR     32  32 100 SE5       30.04F FOG     WCI  27
6HR MIN TEMP:  31; 6HR MAX TEMP:  37;

MATTOON        CLOUDY    36  35  96 SE6       30.07F WCI  31
6HR MIN TEMP:  35; 6HR MAX TEMP:  36;

MT CARMEL AP   MOCLDY    37  36  93 E6        30.10F WCI  33
6HR MIN TEMP:  37; 6HR MAX TEMP:  39;

OLNEY-NOBLE AP CLOUDY    36  36 100 E6        30.09F WCI  31
PARIS          CLOUDY    35  34  97 E3        30.10F
6HR MIN TEMP:  34; 6HR MAX TEMP:  37;

PEORIA         CLOUDY    33  32  96 S5        30.05F FOG     WCI  29
6HR MIN TEMP:  31; 6HR MAX TEMP:  36;

PONTIAC        PTCLDY    34  34 100 S7        30.07S FOG     WCI  28
6HR MIN TEMP:  32; 6HR MAX TEMP:  37;

RANTOUL        CLOUDY    35  34  98 S5        30.08F FOG     WCI  31
6HR MIN TEMP:  35; 6HR MAX TEMP:  39;

SPRINGFIELD    CLOUDY    39  35  86 SE5       30.05F
6HR MIN TEMP:  37; 6HR MAX TEMP:  40;

TAYLORVILLE    CLOUDY    37  35  94 SE5       30.05F FOG     WCI  33
6HR MIN TEMP:  37; 6HR MAX TEMP:  38;

$$

...REGIONAL REPORTS...


CITY           SKY/WX    TMP DP  RH WIND       PRES   REMARKS
CHICAGO O`HARE CLOUDY    30  29  96 S5        30.03F FOG     WCI  25
KANKAKEE       CLOUDY    34  33  94 S8        30.08S WCI  28
MOLINE         CLEAR     27  26  96 CALM      30.01F FOG
MOUNT STERLING CLOUDY    34  32  93 SE6       30.01F WCI  29
MOUNT VERNON   CLOUDY    40  37  89 E5        30.07
PITTSFIELD     PTCLDY    37  35  91 SE5       30.03F WCI  33
QUINCY         PTCLDY    35  33  92 E5        30.00F WCI  31
ROCKFORD       CLEAR     30  28  92 S6        30.04S FOG     WCI  24
$$


CITY           SKY/WX    TMP DP  RH WIND       PRES   REMARKS
BURLINGTON     CLOUDY    34  34 100 S6        30.00F WCI  29
CEDAR RAPIDS   FOG       32  32 100 S10       29.97S VSB 1/4 WCI  24
DES MOINES     FOG       36  35  96 S12       29.95S VSB 1/2 WCI  28
KIRKSVILLE     CLOUDY    33  33 100 E3        29.98F FOG
OTTUMWA        FOG       33  32  96 S3        29.97F VSB 1/4
ST LOUIS       LGT RAIN  45  37  73 S6        30.04S
$$


CITY           SKY/WX    TMP DP  RH WIND       PRES   REMARKS
TERRE HAUTE    CLOUDY    36  33  89 E3        30.09F
EVANSVILLE     MOCLDY    40  36  86 E3        30.09F
INDIANAPOLIS   CLOUDY    37  33  85 S7        30.10F WCI  32
LAFAYETTE      CLOUDY    36  34  92 S5        30.10F WCI  32
MADISON        CLOUDY    33  32  96 SW5       29.99F FOG     WCI  29
MILWAUKEE      CLOUDY    34  30  85 W8        30.00F FOG     WCI  27
$$






USA.gov is the U.S. government's official web portal to all federal, state and local government web resources and services.